Location: Nebel
(54.6502°N, 8.3475°E)
Time: 23:30:28
(UTC+01:00)

Envisat - Pass Details

Date: 04 December 2022
Orbit: 763 x 765 km, 98.2° (Epoch: 01 February)

Event Time Altitude Azimuth Distance (km) Brightness Sun altitude
Rises 06:19:32 0° 10° (N) 3,249 6.2 -17.6°
Reaches altitude 10° 06:22:09 10° 358° (N) 2,318 5.3 -17.2°
Maximum altitude 06:26:20 27° 303° (WNW) 1,464 3.9 -16.6°
Enters shadow 06:26:23 27° 302° (WNW) 1,464 3.9 -16.6°
